�������l�o���
Date,Time,MP-1(��Sv/h),MP-2(��Sv/h),MP-3(��Sv/h),MP-4(��Sv/h),MP-5(��Sv/h),MP-6(��Sv/h),MP-7(��Sv/h),MP-8(��Sv/h),����,����(m/s),���J
2023/10/20,00:00,0.521,0.792,0.492,0.988,0.712,0.320,0.568,0.529,��쐼,3.9,��
2023/10/20,00:10,0.521,0.792,0.490,0.990,0.712,0.320,0.568,0.529,��쐼,4.4,��
2023/10/20,00:20,0.520,0.790,0.489,0.990,0.712,0.320,0.568,0.531,�쐼,4.5,��
2023/10/20,00:30,0.522,0.793,0.489,0.990,0.710,0.320,0.568,0.529,�쐼,4.7,��
2023/10/20,00:40,0.522,0.794,0.491,0.989,0.711,0.319,0.567,0.530,�쐼,4.7,��
2023/10/20,00:50,0.520,0.792,0.490,0.991,0.712,0.321,0.567,0.528,�쐼,4.8,��
2023/10/20,01:00,0.521,0.792,0.490,0.990,0.713,0.319,0.567,0.528,�쐼,4.0,��
2023/10/20,01:10,0.521,0.792,0.491,0.990,0.711,0.319,0.570,0.529,��,3.2,��
2023/10/20,01:20,0.520,0.792,0.490,0.990,0.712,0.320,0.567,0.528,���쐼,3.2,��
2023/10/20,01:30,0.519,0.794,0.492,0.993,0.711,0.320,0.567,0.531,���쐼,3.0,��
2023/10/20,01:40,0.521,0.793,0.489,0.990,0.712,0.320,0.569,0.529,�쐼,2.6,��
2023/10/20,01:50,0.521,0.791,0.489,0.992,0.713,0.320,0.568,0.530,��쐼,2.3,��
2023/10/20,02:00,0.521,0.794,0.493,0.988,0.710,0.321,0.568,0.530,��,3.5,��
2023/10/20,02:10,0.522,0.792,0.491,0.991,0.713,0.319,0.569,0.530,��쐼,5.1,��
2023/10/20,02:20,0.522,0.793,0.490,0.989,0.713,0.320,0.567,0.529,��쐼,4.5,��
2023/10/20,02:30,0.521,0.793,0.492,0.991,0.711,0.319,0.567,0.529,��쐼,4.2,��
2023/10/20,02:40,0.522,0.794,0.491,0.990,0.712,0.320,0.567,0.531,�쐼,6.0,��
2023/10/20,02:50,0.521,0.793,0.490,0.991,0.710,0.321,0.568,0.529,�쐼,5.2,��
2023/10/20,03:00,0.521,0.793,0.491,0.991,0.712,0.321,0.568,0.529,�쐼,3.9,��
2023/10/20,03:10,0.521,0.793,0.490,0.990,0.711,0.320,0.568,0.528,��,2.5,��
2023/10/20,03:20,0.520,0.791,0.490,0.989,0.710,0.320,0.569,0.529,��,1.5,��
2023/10/20,03:30,0.522,0.791,0.491,0.990,0.712,0.319,0.569,0.529,��,2.8,��
2023/10/20,03:40,0.521,0.792,0.490,0.990,0.710,0.319,0.567,0.530,��쐼,2.8,��
2023/10/20,03:50,0.521,0.793,0.491,0.990,0.712,0.320,0.569,0.530,��쐼,3.3,��
2023/10/20,04:00,0.521,0.793,0.490,0.990,0.711,0.319,0.568,0.530,��쐼,3.1,��
2023/10/20,04:10,0.520,0.791,0.491,0.991,0.713,0.319,0.567,0.530,��쐼,3.1,��
2023/10/20,04:20,0.522,0.794,0.489,0.988,0.712,0.320,0.566,0.529,��쐼,3.3,��
2023/10/20,04:30,0.522,0.791,0.491,0.989,0.711,0.319,0.569,0.530,��쐼,5.1,��
2023/10/20,04:40,0.519,0.790,0.488,0.990,0.713,0.320,0.567,0.530,��쐼,6.1,��
2023/10/20,04:50,0.519,0.789,0.488,0.989,0.711,0.320,0.569,0.529,�쐼,6.1,��
2023/10/20,05:00,0.519,0.790,0.491,0.990,0.712,0.318,0.569,0.529,�쐼,5.0,��
2023/10/20,05:10,0.521,0.793,0.491,0.990,0.710,0.320,0.568,0.530,�쐼,5.6,��
2023/10/20,05:20,0.521,0.791,0.489,0.989,0.711,0.319,0.569,0.530,�쐼,5.9,��
2023/10/20,05:30,0.521,0.793,0.490,0.989,0.712,0.320,0.568,0.530,�쐼,4.0,��
2023/10/20,05:40,0.520,0.793,0.492,0.991,0.712,0.319,0.568,0.529,�쐼,2.3,��
2023/10/20,05:50,0.521,0.792,0.489,0.991,0.712,0.320,0.568,0.528,�쐼,5.0,��
2023/10/20,06:00,0.521,0.792,0.488,0.990,0.709,0.319,0.569,0.529,��쐼,4.3,��
2023/10/20,06:10,0.520,0.790,0.491,0.990,0.710,0.318,0.568,0.530,��쐼,4.4,��
2023/10/20,06:20,0.521,0.792,0.492,0.988,0.710,0.320,0.567,0.530,��쐼,5.4,��
2023/10/20,06:30,0.521,0.793,0.490,0.991,0.713,0.318,0.568,0.529,��,4.7,��
2023/10/20,06:40,0.522,0.791,0.490,0.989,0.712,0.319,0.571,0.530,��,5.1,��
2023/10/20,06:50,0.522,0.792,0.491,0.991,0.710,0.321,0.568,0.530,�쐼,5.4,��
2023/10/20,07:00,0.521,0.795,0.491,0.990,0.711,0.320,0.568,0.531,��,2.5,��
2023/10/20,07:10,0.520,0.795,0.492,0.990,0.712,0.319,0.569,0.528,��,3.3,��
2023/10/20,07:20,0.521,0.793,0.491,0.990,0.710,0.320,0.569,0.530,��,3.4,��
2023/10/20,07:30,0.520,0.792,0.492,0.992,0.712,0.320,0.570,0.531,��쓌,2.6,��
2023/10/20,07:40,0.522,0.792,0.492,0.992,0.711,0.320,0.570,0.531,��,3.8,��
2023/10/20,07:50,0.522,0.793,0.491,0.992,0.711,0.321,0.568,0.531,��쓌,3.4,��
2023/10/20,08:00,0.523,0.791,0.490,0.990,0.712,0.320,0.570,0.529,��쓌,4.7,��
2023/10/20,08:10,0.522,0.791,0.493,0.991,0.710,0.321,0.570,0.530,��쓌,7.9,��
2023/10/20,08:20,0.522,0.793,0.492,0.990,0.711,0.320,0.569,0.530,��쓌,6.6,��
2023/10/20,08:30,0.520,0.792,0.492,0.993,0.712,0.321,0.568,0.533,��쓌,6.9,��
2023/10/20,08:40,0.521,0.790,0.491,0.992,0.712,0.320,0.566,0.530,��쓌,6.3,��
2023/10/20,08:50,0.520,0.789,0.492,0.992,0.713,0.321,0.568,0.530,��,5.3,��
2023/10/20,09:00,0.522,0.790,0.492,0.992,0.710,0.320,0.569,0.531,��,4.4,��
2023/10/20,09:10,0.522,0.790,0.491,0.991,0.712,0.317,0.570,0.530,��쓌,3.1,��
2023/10/20,09:20,0.519,0.791,0.492,0.994,0.710,0.317,0.568,0.531,��쓌,2.6,��
2023/10/20,09:30,0.521,0.791,0.492,0.991,0.709,0.315,0.569,0.530,��,2.0,��
2023/10/20,09:40,0.522,0.791,0.492,0.991,0.711,0.316,0.569,0.529,��쐼,2.8,��
2023/10/20,09:50,0.521,0.791,0.493,0.993,0.712,0.314,0.568,0.529,��,3.6,��
2023/10/20,10:00,0.521,0.792,0.492,0.993,0.711,0.317,0.568,0.529,��,5.7,��
2023/10/20,10:10,0.521,0.790,0.493,0.991,0.710,0.316,0.569,0.529,��쓌,4.9,��
2023/10/20,10:20,0.521,0.793,0.492,0.992,0.713,0.317,0.568,0.529,��쓌,5.2,��
2023/10/20,10:30,0.522,0.792,0.491,0.992,0.713,0.318,0.568,0.530,��,5.9,��
2023/10/20,10:40,0.522,0.792,0.491,0.992,0.713,0.317,0.569,0.529,��,5.8,��
2023/10/20,10:50,0.522,0.791,0.491,0.994,0.713,0.314,0.570,0.530,��쓌,7.9,��
2023/10/20,11:00,0.522,0.791,0.491,0.995,0.711,0.317,0.569,0.528,��,8.6,��
2023/10/20,11:10,0.522,0.792,0.491,0.995,0.712,0.320,0.570,0.529,��쓌,9.6,��
2023/10/20,11:20,0.522,0.791,0.493,0.993,0.714,0.319,0.570,0.528,��쓌,9.2,��
2023/10/20,11:30,0.523,0.793,0.491,0.993,0.714,0.322,0.568,0.528,��쓌,9.4,��
2023/10/20,11:40,0.522,0.791,0.492,0.995,0.713,0.319,0.571,0.530,��쓌,10.3,��
2023/10/20,11:50,0.523,0.792,0.493,0.993,0.713,0.318,0.568,0.529,��쓌,9.5,��
2023/10/20,12:00,0.522,0.791,0.491,0.994,0.713,0.320,0.569,0.529,��쓌,11.3,��
2023/10/20,12:10,0.522,0.794,0.492,0.993,0.713,0.322,0.570,0.530,��쓌,9.7,��
2023/10/20,12:20,0.523,0.793,0.492,0.993,0.713,0.322,0.568,0.530,��쓌,11.3,��
2023/10/20,12:30,0.522,0.794,0.491,0.992,0.714,0.322,0.571,0.529,��,7.4,��
2023/10/20,12:40,0.523,0.792,0.491,0.993,0.713,0.322,0.570,0.529,��,5.3,��
2023/10/20,12:50,0.521,0.793,0.492,0.992,0.714,0.322,0.569,0.529,��쓌,3.6,��
2023/10/20,13:00,0.523,0.792,0.491,0.994,0.713,0.320,0.570,0.530,��쓌,3.4,��
2023/10/20,13:10,0.523,0.793,0.493,0.994,0.713,0.320,0.570,0.530,��쓌,2.0,��
2023/10/20,13:20,0.522,0.793,0.492,0.992,0.713,0.321,0.571,0.528,��쓌,3.1,��
2023/10/20,13:30,0.522,0.793,0.491,0.991,0.715,0.320,0.570,0.531,��,2.5,��
2023/10/20,13:40,0.523,0.792,0.491,0.993,0.714,0.319,0.570,0.529,��,7.8,��
2023/10/20,13:50,0.523,0.793,0.492,0.993,0.713,0.319,0.570,0.529,��,7.3,��
2023/10/20,14:00,0.522,0.792,0.491,0.993,0.714,0.320,0.570,0.531,��,7.1,��
2023/10/20,14:10,0.523,0.793,0.492,0.994,0.714,0.322,0.570,0.530,��쐼,6.8,��
2023/10/20,14:20,0.524,0.791,0.491,0.994,0.715,0.321,0.570,0.530,��,6.1,��
2023/10/20,14:30,0.522,0.792,0.493,0.994,0.715,0.320,0.570,0.531,��,6.0,��
2023/10/20,14:40,0.523,0.795,0.492,0.992,0.714,0.322,0.570,0.531,��,4.6,��
2023/10/20,14:50,0.525,0.794,0.492,0.992,0.713,0.321,0.571,0.529,��,4.5,��
2023/10/20,15:00,0.523,0.790,0.491,0.996,0.715,0.322,0.571,0.530,��,4.8,��
2023/10/20,15:10,0.522,0.792,0.493,0.993,0.715,0.320,0.570,0.530,��,3.4,��
2023/10/20,15:20,0.524,0.793,0.493,0.994,0.714,0.322,0.570,0.531,��,3.8,��
2023/10/20,15:30,0.522,0.795,0.493,0.991,0.715,0.322,0.570,0.531,��,3.9,��
2023/10/20,15:40,0.523,0.793,0.493,0.993,0.715,0.321,0.569,0.530,��,3.7,��
2023/10/20,15:50,0.523,0.792,0.494,0.994,0.715,0.320,0.571,0.529,��,3.5,��
2023/10/20,16:00,0.524,0.794,0.496,0.995,0.715,0.322,0.571,0.531,��,3.2,��
2023/10/20,16:10,0.524,0.795,0.494,0.994,0.715,0.322,0.569,0.530,��,3.2,��
2023/10/20,16:20,0.524,0.794,0.495,0.994,0.716,0.322,0.569,0.532,��쐼,2.6,��
2023/10/20,16:30,0.523,0.797,0.496,0.995,0.718,0.324,0.570,0.532,�쐼,1.9,��
2023/10/20,16:40,0.524,0.795,0.496,0.995,0.719,0.323,0.569,0.531,�쐼,2.8,��
2023/10/20,16:50,0.522,0.797,0.495,0.994,0.718,0.321,0.570,0.531,�쐼,3.1,��
2023/10/20,17:00,0.522,0.798,0.494,0.994,0.717,0.323,0.569,0.531,�쐼,2.5,��
2023/10/20,17:10,0.524,0.797,0.494,0.995,0.719,0.321,0.571,0.530,��,1.9,��
2023/10/20,17:20,0.522,0.798,0.493,0.992,0.716,0.323,0.570,0.531,���쐼,1.7,��
2023/10/20,17:30,0.523,0.798,0.496,0.995,0.718,0.322,0.569,0.531,��,1.5,��
2023/10/20,17:40,0.521,0.797,0.496,0.996,0.717,0.323,0.572,0.532,���k��,2.2,��
2023/10/20,17:50,0.524,0.796,0.496,0.997,0.718,0.322,0.571,0.532,��,2.6,��
2023/10/20,18:00,0.525,0.798,0.496,0.997,0.719,0.323,0.569,0.534,���쐼,3.1,��
2023/10/20,18:10,0.524,0.798,0.495,0.994,0.718,0.322,0.571,0.532,���쐼,3.4,��
2023/10/20,18:20,0.525,0.796,0.495,0.997,0.719,0.322,0.570,0.532,���쐼,4.8,��
2023/10/20,18:30,0.526,0.798,0.495,0.997,0.719,0.321,0.571,0.532,���k��,6.1,��
2023/10/20,18:40,0.525,0.798,0.495,0.997,0.715,0.321,0.569,0.534,��,5.4,��
2023/10/20,18:50,0.526,0.798,0.495,0.997,0.716,0.321,0.570,0.534,���k��,4.2,��
2023/10/20,19:00,0.523,0.797,0.494,0.997,0.717,0.322,0.569,0.531,�k��,2.9,��
2023/10/20,19:10,0.526,0.800,0.495,0.997,0.719,0.323,0.569,0.532,���k��,1.9,��
2023/10/20,19:20,0.524,0.796,0.495,0.998,0.714,0.323,0.569,0.531,���k��,1.9,��
2023/10/20,19:30,0.525,0.800,0.495,0.997,0.717,0.322,0.570,0.531,�k��,4.0,��
2023/10/20,19:40,0.523,0.797,0.495,0.996,0.717,0.321,0.569,0.532,�k��,4.5,��
2023/10/20,19:50,0.525,0.800,0.495,0.996,0.717,0.320,0.570,0.533,���k��,4.4,��
2023/10/20,20:00,0.525,0.796,0.494,0.999,0.718,0.322,0.569,0.531,���k��,4.3,��
2023/10/20,20:10,0.523,0.797,0.496,0.996,0.718,0.320,0.570,0.530,���k��,1.9,��
2023/10/20,20:20,0.524,0.798,0.495,0.995,0.718,0.320,0.570,0.530,���k��,2.9,��
2023/10/20,20:30,0.523,0.798,0.494,0.997,0.718,0.320,0.570,0.531,��,6.0,��
2023/10/20,20:40,0.523,0.796,0.496,0.996,0.717,0.320,0.570,0.532,��,8.2,��
2023/10/20,20:50,0.523,0.796,0.494,1.000,0.717,0.320,0.568,0.533,��,8.0,��
2023/10/20,21:00,0.524,0.798,0.494,0.996,0.718,0.319,0.569,0.530,���k��,7.7,��
2023/10/20,21:10,0.524,0.797,0.494,0.999,0.715,0.320,0.569,0.529,���k��,6.5,��
2023/10/20,21:20,0.524,0.798,0.495,0.999,0.717,0.321,0.570,0.529,���k��,5.4,��
2023/10/20,21:30,0.521,0.797,0.494,0.998,0.716,0.321,0.570,0.530,���k��,6.0,��
2023/10/20,21:40,0.522,0.798,0.494,0.999,0.716,0.320,0.570,0.531,���k��,5.3,��
2023/10/20,21:50,0.523,0.797,0.495,0.997,0.716,0.320,0.570,0.532,���k��,5.2,��
2023/10/20,22:00,0.523,0.799,0.495,0.998,0.716,0.320,0.569,0.531,�k��,4.0,��
2023/10/20,22:10,0.524,0.798,0.493,0.999,0.716,0.320,0.570,0.533,�k��,4.4,��
2023/10/20,22:20,0.524,0.798,0.493,0.996,0.714,0.320,0.570,0.532,�k��,4.5,��
2023/10/20,22:30,0.524,0.799,0.494,0.997,0.715,0.321,0.571,0.532,�k�k��,4.5,��
2023/10/20,22:40,0.526,0.798,0.493,0.997,0.719,0.320,0.571,0.531,�k��,3.4,��
2023/10/20,22:50,0.524,0.797,0.496,0.999,0.719,0.321,0.570,0.533,�k�k��,4.8,��
2023/10/20,23:00,0.525,0.797,0.495,0.998,0.718,0.321,0.570,0.533,�k�k��,4.6,�L
2023/10/20,23:10,0.524,0.798,0.495,0.998,0.717,0.322,0.571,0.533,�k�k��,3.2,�L
2023/10/20,23:20,0.525,0.798,0.494,0.999,0.717,0.321,0.570,0.533,�k��,3.0,�L
2023/10/20,23:30,0.525,0.799,0.496,0.999,0.717,0.321,0.570,0.534,�k�k��,4.2,�L
2023/10/20,23:40,0.525,0.799,0.494,1.000,0.718,0.322,0.572,0.534,�k�k��,4.6,�L
2023/10/20,23:50,0.524,0.799,0.495,1.000,0.718,0.322,0.570,0.535,�k�k��,3.4,�L
